| time (UTC) | temp C | wind direction | speed KPH | gust KPH | rain 1hr cm | rain 24hr cm | rain mn cm | humidity % | barometer mb |
| 20260506073008 | 2 | 281 | 0.0 | 0.0 | 0.00 | 0.38 | 0.38 | 82 | 1016.9 |
| 20260506071505 | 1 | 275 | 0.0 | 0.0 | 0.00 | 0.38 | 0.38 | 85 | 1016.7 |
| 20260506061504 | 2 | 277 | 0.0 | 0.0 | 0.00 | 0.38 | 0.38 | 84 | 1016.3 |
| 20260506050115 | 2 | 282 | 0.0 | 1.6 | 0.00 | 0.38 | 0.38 | 81 | 1015.5 |
| 20260506044558 | 2 | 283 | 0.0 | 1.6 | 0.00 | 0.38 | 0.38 | 83 | 1015.4 |
| 20260506043105 | 3 | 288 | 0.0 | 1.6 | 0.00 | 0.38 | 0.38 | 81 | 1015.3 |
| 20260506041557 | 3 | 230 | 0.0 | 8.0 | 0.00 | 0.38 | 0.38 | 80 | 1015.2 |
| 20260506040104 | 3 | 186 | 0.0 | 6.4 | 0.00 | 0.38 | 0.38 | 81 | 1015.0 |
| 20260506034604 | 3 | 277 | 0.0 | 1.6 | 0.00 | 0.38 | 0.38 | 80 | 1014.9 |
| 20260506033053 | 3 | 277 | 0.0 | 1.6 | 0.00 | 0.38 | 0.38 | 80 | 1014.6 |
| 20260506031553 | 3 | 277 | 0.0 | 3.2 | 0.00 | 0.38 | 0.38 | 79 | 1014.3 |
| 20260506030054 | 4 | 279 | 0.0 | 4.8 | 0.00 | 0.38 | 0.38 | 76 | 1013.9 |
| 20260506024555 | 5 | 142 | 0.0 | 3.2 | 0.00 | 0.38 | 0.38 | 73 | 1013.7 |
| 20260506023046 | 5 | 311 | 0.0 | 1.6 | 0.00 | 0.38 | 0.38 | 67 | 1013.6 |
| 20260506021558 | 6 | 78 | 0.0 | 8.0 | 0.00 | 0.38 | 0.38 | 64 | 1013.4 |
| 20260506020043 | 8 | 287 | 0.0 | 4.8 | 0.00 | 0.38 | 0.38 | 55 | 1013.2 |
| 20260506014543 | 8 | 33 | 0.0 | 8.0 | 0.00 | 0.38 | 0.38 | 54 | 1013.1 |
| 20260506013052 | 8 | 15 | 0.0 | 8.0 | 0.00 | 0.38 | 0.38 | 54 | 1013.0 |
| 20260506011545 | 8 | 265 | 1.6 | 11.3 | 0.00 | 0.38 | 0.38 | 57 | 1012.9 |
| 20260506010041 | 8 | 80 | 3.2 | 9.7 | 0.00 | 0.38 | 0.38 | 55 | 1012.8 |
| 20260506004540 | 8 | 54 | 3.2 | 8.0 | 0.00 | 0.38 | 0.38 | 56 | 1012.8 |
| 20260506003040 | 8 | 248 | 1.6 | 6.4 | 0.00 | 0.38 | 0.38 | 56 | 1012.7 |
| 20260506001539 | 7 | 202 | 0.0 | 8.0 | 0.00 | 0.38 | 0.38 | 60 | 1012.7 |
| 20260506000039 | 7 | 199 | 0.0 | 4.8 | 0.00 | 0.38 | 0.38 | 65 | 1012.7 |
| 20260505234534 | 7 | 202 | 1.6 | 11.3 | 0.00 | 0.38 | 0.38 | 66 | 1012.5 |
| 20260505233036 | 7 | 221 | 3.2 | 11.3 | 0.00 | 0.38 | 0.38 | 64 | 1012.6 |
| 20260505231535 | 6 | 78 | 3.2 | 11.3 | 0.00 | 0.38 | 0.38 | 66 | 1012.7 |
| 20260505230036 | 6 | 138 | 0.0 | 9.7 | 0.00 | 0.38 | 0.38 | 67 | 1012.5 |
| 20260505224529 | 6 | 65 | 1.6 | 9.7 | 0.00 | 0.38 | 0.38 | 66 | 1012.6 |
| 20260505223033 | 6 | 342 | 6.4 | 17.7 | 0.00 | 0.41 | 0.38 | 67 | 1012.4 |
| 20260505221527 | 6 | 284 | 3.2 | 19.3 | 0.00 | 0.41 | 0.38 | 73 | 1012.2 |
| 20260505220025 | 5 | 245 | 6.4 | 17.7 | 0.00 | 0.41 | 0.38 | 74 | 1012.2 |
| 20260505214531 | 5 | 290 | 3.2 | 9.7 | 0.03 | 0.41 | 0.38 | 74 | 1012.2 |
| 20260505213026 | 5 | 71 | 0.0 | 4.8 | 0.05 | 0.53 | 0.38 | 76 | 1012.3 |
| 20260505211526 | 5 | 83 | 0.0 | 8.0 | 0.05 | 0.53 | 0.38 | 76 | 1012.3 |
| 20260505210025 | 6 | 123 | 1.6 | 12.9 | 0.10 | 0.53 | 0.38 | 71 | 1012.2 |
| 20260505204524 | 6 | 137 | 1.6 | 11.3 | 0.13 | 0.53 | 0.38 | 76 | 1012.2 |
| 20260505203020 | 4 | 128 | 6.4 | 14.5 | 0.18 | 0.64 | 0.36 | 81 | 1012.3 |
| 20260505201518 | 4 | 125 | 1.6 | 8.0 | 0.20 | 0.61 | 0.33 | 83 | 1012.5 |
| 20260505200016 | 3 | 89 | 1.6 | 14.5 | 0.20 | 0.58 | 0.30 | 86 | 1012.6 |
| 20260505194516 | 3 | 120 | 1.6 | 8.0 | 0.20 | 0.53 | 0.25 | 88 | 1012.8 |
| 20260505193012 | 3 | 76 | 0.0 | 3.2 | 0.20 | 0.51 | 0.20 | 90 | 1013.0 |
| 20260505191512 | 2 | 28 | 0.0 | 8.0 | 0.15 | 0.46 | 0.15 | 88 | 1012.7 |
| 20260505190017 | 2 | 300 | 1.6 | 6.4 | 0.10 | 0.41 | 0.10 | 88 | 1012.5 |
| 20260505184511 | 2 | 263 | 0.0 | 1.6 | 0.08 | 0.38 | 0.08 | 88 | 1012.4 |
| 20260505183008 | 1 | 260 | 0.0 | 0.0 | 0.03 | 0.33 | 0.03 | 91 | 1012.3 |
| 20260505181503 | 1 | 24 | 0.0 | 1.6 | 0.00 | 0.30 | 0.00 | 90 | 1012.1 |
| 20260505180002 | 1 | 292 | 0.0 | 4.8 | 0.00 | 0.30 | 0.00 | 89 | 1012.0 |
| 20260505174605 | 1 | 63 | 0.0 | 4.8 | 0.00 | 0.30 | 0.00 | 89 | 1011.6 |
| 20260505173058 | 1 | 215 | 0.0 | 0.0 | 0.00 | 0.30 | 0.00 | 86 | 1011.2 |
| 20260505171557 | 1 | 215 | 0.0 | 0.0 | 0.00 | 0.30 | 0.00 | 87 | 1010.9 |
| 20260505170054 | 1 | 215 | 0.0 | 1.6 | 0.00 | 0.30 | 0.00 | 88 | 1010.9 |
| 20260505164600 | 1 | 215 | 0.0 | 6.4 | 0.00 | 0.30 | 0.00 | 90 | 1010.6 |
| 20260505163051 | 1 | 205 | 0.0 | 3.2 | 0.00 | 0.30 | 0.00 | 90 | 1010.4 |
| 20260505161550 | 0 | 295 | 0.0 | 4.8 | 0.00 | 0.30 | 0.00 | 90 | 1010.1 |
| 20260505153044 | 0 | 269 | 0.0 | 0.0 | 0.00 | 0.30 | 0.00 | 90 | 1009.0 |
| 20260505151543 | 0 | 46 | 0.0 | 0.0 | 0.00 | 0.30 | 0.00 | 90 | 1008.8 |
| 20260505124521 | 0 | 160 | 8.0 | 16.1 | 0.00 | 0.30 | 0.00 | 83 | 1007.8 |
| 20260505123012 | 0 | 176 | 6.4 | 16.1 | 0.00 | 0.30 | 0.00 | 84 | 1007.7 |
| 20260505121512 | 0 | 263 | 6.4 | 16.1 | 0.00 | 0.30 | 0.00 | 85 | 1007.7 |
| 20260505120022 | 0 | 256 | 4.8 | 12.9 | 0.00 | 0.30 | 0.00 | 87 | 1007.8 |
| 20260505114508 | 0 | 295 | 1.6 | 12.9 | 0.00 | 0.30 | 0.00 | 86 | 1007.9 |
| 20260505113007 | 0 | 275 | 1.6 | 11.3 | 0.00 | 0.30 | 0.00 | 84 | 1007.7 |
| 20260505111514 | 0 | 138 | 4.8 | 17.7 | 0.00 | 0.30 | 0.00 | 84 | 1007.9 |
| 20260505101508 | 0 | 257 | 0.0 | 4.8 | 0.00 | 0.30 | 0.00 | 92 | 1007.7 |
| 20260505100002 | 0 | 76 | 0.0 | 0.0 | 0.00 | 0.30 | 0.00 | 92 | 1008.0 |
| 20260505094601 | 0 | 76 | 0.0 | 1.6 | 0.00 | 0.30 | 0.00 | 92 | 1008.2 |
| 20260505093102 | 0 | 75 | 0.0 | 4.8 | 0.00 | 0.30 | 0.00 | 91 | 1008.2 |
| 20260505091607 | 0 | 38 | 0.0 | 8.0 | 0.00 | 0.30 | 0.00 | 90 | 1008.4 |
| 20260505090057 | 0 | 11 | 4.8 | 12.9 | 0.00 | 0.30 | 0.00 | 88 | 1008.4 |
| 20260505084556 | 0 | 63 | 4.8 | 9.7 | 0.00 | 0.30 | 0.00 | 87 | 1008.5 |
| 20260505083057 | 1 | 246 | 0.0 | 11.3 | 0.00 | 0.30 | 0.00 | 79 | 1008.6 |
| 20260505081550 | 1 | 304 | 1.6 | 17.7 | 0.00 | 0.30 | 0.00 | 79 | 1008.5 |